This is the latest recevied weather packets stored in our database for station/object W4UWO. If no packets are shown the sender has not sent any weather packets the latest 10 day(s).
| Time | Temp. | Humidity | Pressure | Rain* | Wind** | Luminosity | Snow |
|---|---|---|---|---|---|---|---|
| 1788374136 | 36.67° C | 38% | 1019.5 hPa | 0 mm | - | 828 W/m² | - |
| 1788373832 | 37.22° C | 38% | 1019.4 hPa | 0 mm | - | 829 W/m² | - |
| 1788373528 | 37.22° C | 38% | 1019.6 hPa | 0 mm | - | 861 W/m² | - |
| 1788373224 | 37.22° C | 41% | 1019.5 hPa | 0 mm | - | 863 W/m² | - |
| 1788372920 | 37.22° C | 39% | 1019.6 hPa | 0 mm | - | 879 W/m² | - |
| 1788372615 | 36.67° C | 38% | 1019.8 hPa | 0 mm | - | 858 W/m² | - |
| 1788372314 | 37.22° C | 37% | 1020 hPa | 0 mm | - | 888 W/m² | - |
| 1788372010 | 37.78° C | 38% | 1019.7 hPa | 0 mm | - | 861 W/m² | - |
| 1788371710 | 37.22° C | 39% | 1020 hPa | 0 mm | - | 888 W/m² | - |
| 1788371406 | 37.22° C | 39% | 1020.1 hPa | 0 mm | - | 872 W/m² | - |
| 1788371103 | 36.67° C | 42% | 1020 hPa | 0 mm | - | 883 W/m² | - |
| 1788370798 | 36.11° C | 40% | 1020.2 hPa | 0 mm | - | 896 W/m² | - |
| 1788370497 | 35.56° C | 42% | 1020.2 hPa | 0 mm | - | 892 W/m² | - |
| 1788370192 | 35.56° C | 43% | 1020.3 hPa | 0 mm | - | 868 W/m² | - |
| 1788369892 | 36.11° C | 42% | 1020.1 hPa | 0 mm | - | 849 W/m² | - |
| 1788369587 | 35.56° C | 42% | 1020.5 hPa | 0 mm | - | 845 W/m² | - |
| 1788369282 | 35.56° C | 41% | 1020.4 hPa | 0 mm | - | 827 W/m² | - |
| 1788368978 | 35.56° C | 43% | 1020.3 hPa | 0 mm | - | 702 W/m² | - |
| 1788368673 | 35.56° C | 42% | 1020.4 hPa | 0 mm | - | 841 W/m² | - |
| 1788368369 | 35.56° C | 42% | 1020.7 hPa | 0 mm | - | 826 W/m² | - |
| 1788368068 | 35.56° C | 42% | 1020.5 hPa | 0 mm | - | 814 W/m² | - |
| 1788367768 | 36.11° C | 43% | 1020.8 hPa | 0 mm | - | 796 W/m² | - |
| 1788367464 | 36.11° C | 42% | 1020.8 hPa | 0 mm | - | 788 W/m² | - |
| 1788367163 | 36.11° C | 42% | 1020.7 hPa | 0 mm | - | 781 W/m² | - |
| 1788366858 | 35.56° C | 41% | 1020.7 hPa | 0 mm | - | 775 W/m² | - |
* Rain latest hour (hover to see other rain measurements)
** Current wind speed in m/s (hover to see current wind gust speed)